Volver al catálogo

STARLINK-36528

ActivoComunicacionesVLEO
NORAD 67458·PAYLOAD·🇺🇸 United States

Lanzado Jan 14, 2026 desde Cape Canaveral Space Force Station

Loading…

Próximos Pases (próximas 24 horas)

TLE

ActualizadoSource: CelesTrak SupGP

Época: Sep 15, 2026, 03:51 UTC

1 67458C 26008P   26258.16090278 -.00069519  00000+0 -25186-2 0  2585
2 67458  42.9997 214.8001 0001341 274.2736  92.2050 15.27604710    10

Sigue STARLINK-36528 en tiempo real con AllMySat

Download on the App Store